RYR5046 LEMG-LPPR

Flight info

Callsign RYR5046
Flight time 1h 5m
Altitude 32000
Route SVL M744 ROSAL DCT LASIB DCT ABLEG
Aircraft B738/M-SDE2E3FGHIRWXY/LB1

Departure

Time 2026-05-05 17:36
Airport Málaga-Costa del Sol Airport (LEMG)

Arrival

Time 2026-05-05 18:41
Airport Francisco de Sá Carneiro Airport (LPPR)
Time Latitude Longitude Altitude Speed Heading
2026-05-05 17:11 36.68058 -4.49334 39 ft 0 kts 208°
2026-05-05 17:27 36.68052 -4.49334 38 ft 2 kts 171°
2026-05-05 17:27 36.68053 -4.49315 40 ft 3 kts 46°
2026-05-05 17:27 36.68081 -4.49298 40 ft 6 kts 26°
2026-05-05 17:27 36.68134 -4.49301 39 ft 10 kts 307°
2026-05-05 17:28 36.68166 -4.49374 41 ft 10 kts 297°
2026-05-05 17:28 36.68153 -4.49458 41 ft 11 kts 228°
2026-05-05 17:28 36.68085 -4.49537 41 ft 16 kts 222°
2026-05-05 17:28 36.67996 -4.49635 41 ft 17 kts 221°
2026-05-05 17:29 36.67907 -4.49733 41 ft 17 kts 222°
2026-05-05 17:29 36.67821 -4.49828 41 ft 16 kts 221°
2026-05-05 17:29 36.67726 -4.49892 42 ft 15 kts 214°
2026-05-05 17:29 36.67681 -4.49880 41 ft 7 kts 137°
2026-05-05 17:30 36.67639 -4.49822 42 ft 11 kts 131°
2026-05-05 17:30 36.67573 -4.49730 42 ft 17 kts 132°
2026-05-05 17:30 36.67484 -4.49604 41 ft 21 kts 131°
2026-05-05 17:30 36.67391 -4.49474 42 ft 20 kts 131°
2026-05-05 17:31 36.67299 -4.49346 41 ft 19 kts 131°
2026-05-05 17:31 36.67211 -4.49222 41 ft 19 kts 131°
2026-05-05 17:31 36.67127 -4.49105 40 ft 18 kts 131°
2026-05-05 17:31 36.67045 -4.48989 41 ft 17 kts 131°
2026-05-05 17:32 36.66965 -4.48878 40 ft 17 kts 131°
2026-05-05 17:32 36.66882 -4.48762 36 ft 19 kts 131°
2026-05-05 17:32 36.66798 -4.48643 34 ft 18 kts 131°
2026-05-05 17:32 36.66720 -4.48534 33 ft 14 kts 131°
2026-05-05 17:33 36.66657 -4.48487 34 ft 11 kts 186°
2026-05-05 17:33 36.66631 -4.48502 34 ft 0 kts 216°
2026-05-05 17:34 36.66628 -4.48504 34 ft 2 kts 217°
2026-05-05 17:34 36.66608 -4.48525 36 ft 6 kts 221°
2026-05-05 17:34 36.66579 -4.48558 38 ft 9 kts 223°
2026-05-05 17:34 36.66592 -4.48651 39 ft 9 kts 312°
2026-05-05 17:35 36.66636 -4.48711 39 ft 12 kts 311°
2026-05-05 17:35 36.66728 -4.48841 41 ft 58 kts 312°
2026-05-05 17:35 36.67198 -4.49501 47 ft 142 kts 312°
2026-05-05 17:35 36.67953 -4.50552 576 ft 176 kts 313°
2026-05-05 17:36 36.68805 -4.51757 1482 ft 193 kts 305°
2026-05-05 17:36 36.69642 -4.53092 2418 ft 197 kts 308°
2026-05-05 17:36 36.70504 -4.54429 3154 ft 200 kts 309°
2026-05-05 17:36 36.71402 -4.55797 3797 ft 206 kts 309°
2026-05-05 17:37 36.72313 -4.57191 4499 ft 209 kts 309°
2026-05-05 17:37 36.73352 -4.58422 5262 ft 208 kts 332°
2026-05-05 17:37 36.74725 -4.59083 5886 ft 213 kts 341°
2026-05-05 17:37 36.76145 -4.59594 6563 ft 216 kts 342°
2026-05-05 17:38 36.77631 -4.60123 7046 ft 224 kts 340°
2026-05-05 17:38 36.79129 -4.60667 7656 ft 227 kts 341°
2026-05-05 17:38 36.80658 -4.61216 8301 ft 228 kts 340°
2026-05-05 17:38 36.82179 -4.61762 8833 ft 236 kts 340°
2026-05-05 17:39 36.83795 -4.62349 8937 ft 244 kts 340°
2026-05-05 17:39 36.85422 -4.62940 8952 ft 243 kts 340°
2026-05-05 17:39 36.87051 -4.63535 8997 ft 246 kts 340°
2026-05-05 17:39 36.88704 -4.64137 9010 ft 247 kts 340°
2026-05-05 17:40 36.90274 -4.64935 8995 ft 241 kts 320°
2026-05-05 17:40 36.91297 -4.66518 9028 ft 236 kts 296°
2026-05-05 17:40 36.91858 -4.68504 9175 ft 254 kts 284°
2026-05-05 17:40 36.92272 -4.70727 9671 ft 269 kts 282°
2026-05-05 17:41 36.92670 -4.73039 10356 ft 276 kts 282°
2026-05-05 17:41 36.93089 -4.75476 10573 ft 300 kts 282°
2026-05-05 17:41 36.93553 -4.78124 10833 ft 322 kts 282°
2026-05-05 17:41 36.94036 -4.80886 11472 ft 328 kts 282°
2026-05-05 17:42 36.94598 -4.83664 12062 ft 331 kts 289°
2026-05-05 17:42 36.95640 -4.86259 12751 ft 337 kts 301°
2026-05-05 17:42 36.96990 -4.88672 13541 ft 340 kts 303°
2026-05-05 17:42 36.98382 -4.91084 14268 ft 343 kts 303°
2026-05-05 17:43 36.99787 -4.93510 14961 ft 346 kts 303°
2026-05-05 17:43 37.01201 -4.95962 15622 ft 350 kts 303°
2026-05-05 17:43 37.02607 -4.98414 16252 ft 353 kts 303°
2026-05-05 17:43 37.04041 -5.00924 16938 ft 356 kts 303°
2026-05-05 17:44 37.05485 -5.03458 17619 ft 359 kts 302°
2026-05-05 17:44 37.06940 -5.06020 18272 ft 363 kts 303°
2026-05-05 17:44 37.08407 -5.08605 18838 ft 366 kts 303°
2026-05-05 17:44 37.09885 -5.11213 19437 ft 368 kts 302°
2026-05-05 17:45 37.11368 -5.13833 20017 ft 370 kts 302°
2026-05-05 17:45 37.12861 -5.16472 20589 ft 373 kts 302°
2026-05-05 17:45 37.14366 -5.19135 21142 ft 376 kts 302°
2026-05-05 17:45 37.15880 -5.21815 21695 ft 378 kts 302°
2026-05-05 17:46 37.17403 -5.24515 22242 ft 381 kts 302°
2026-05-05 17:46 37.18938 -5.27236 22776 ft 383 kts 302°
2026-05-05 17:46 37.20484 -5.29980 23293 ft 386 kts 302°
2026-05-05 17:46 37.22035 -5.32735 23772 ft 388 kts 302°
2026-05-05 17:47 37.23599 -5.35513 24192 ft 391 kts 302°
2026-05-05 17:47 37.25172 -5.38309 24621 ft 393 kts 302°
2026-05-05 17:47 37.26750 -5.41120 25051 ft 394 kts 302°
2026-05-05 17:47 37.28311 -5.43960 25471 ft 395 kts 299°
2026-05-05 17:48 37.29730 -5.46922 25872 ft 396 kts 296°
2026-05-05 17:48 37.31077 -5.49947 26272 ft 397 kts 295°
2026-05-05 17:48 37.32411 -5.52995 26673 ft 399 kts 295°
2026-05-05 17:48 37.33741 -5.56016 27060 ft 401 kts 295°
2026-05-05 17:49 37.35103 -5.59080 27463 ft 403 kts 295°
2026-05-05 17:49 37.36477 -5.62146 27948 ft 401 kts 295°
2026-05-05 17:49 37.37847 -5.65188 28525 ft 398 kts 295°
2026-05-05 17:49 37.39205 -5.68203 29108 ft 395 kts 295°
2026-05-05 17:50 37.40556 -5.71204 29615 ft 393 kts 295°
2026-05-05 17:50 37.41901 -5.74201 30047 ft 394 kts 295°
2026-05-05 17:50 37.43248 -5.77202 30429 ft 393 kts 295°
2026-05-05 17:50 37.44595 -5.80186 30859 ft 391 kts 295°
2026-05-05 17:51 37.45942 -5.83162 31246 ft 390 kts 295°
2026-05-05 17:51 37.47287 -5.86136 31586 ft 391 kts 295°
2026-05-05 17:51 37.48631 -5.89108 31910 ft 391 kts 295°
2026-05-05 17:52 37.51348 -5.95132 31936 ft 396 kts 295°
2026-05-05 17:52 37.54041 -6.01105 31939 ft 388 kts 295°
2026-05-05 17:53 37.56690 -6.06998 31984 ft 390 kts 295°
2026-05-05 17:53 37.59366 -6.12963 31962 ft 391 kts 295°
2026-05-05 17:54 37.62042 -6.18935 31964 ft 391 kts 295°
2026-05-05 17:54 37.64717 -6.24914 31965 ft 391 kts 295°
2026-05-05 17:55 37.67382 -6.30888 31968 ft 390 kts 295°
2026-05-05 17:55 37.70030 -6.36850 31976 ft 389 kts 295°
2026-05-05 17:56 37.72668 -6.42801 31975 ft 388 kts 295°
2026-05-05 17:56 37.75302 -6.48749 31966 ft 388 kts 295°
2026-05-05 17:57 37.77934 -6.54704 32003 ft 388 kts 295°
2026-05-05 17:57 37.80545 -6.60622 31980 ft 387 kts 294°
2026-05-05 17:58 37.83159 -6.66554 31978 ft 385 kts 294°
2026-05-05 17:58 37.85758 -6.72463 31993 ft 383 kts 294°
2026-05-05 17:59 37.88343 -6.78352 31989 ft 382 kts 294°
2026-05-05 17:59 37.90920 -6.84236 31979 ft 382 kts 294°
2026-05-05 18:00 37.93492 -6.90117 31994 ft 381 kts 294°
2026-05-05 18:00 37.96062 -6.96005 31986 ft 381 kts 294°
2026-05-05 18:01 37.98627 -7.01887 32010 ft 381 kts 294°
2026-05-05 18:01 38.01158 -7.07756 31991 ft 381 kts 291°
2026-05-05 18:02 38.02777 -7.14074 31984 ft 375 kts 277°
2026-05-05 18:02 38.03347 -7.17301 31961 ft 378 kts 288°
2026-05-05 18:02 38.04659 -7.20215 31994 ft 386 kts 303°
2026-05-05 18:02 38.06535 -7.22687 31989 ft 394 kts 314°
2026-05-05 18:03 38.08879 -7.24578 31980 ft 407 kts 329°
2026-05-05 18:03 38.14247 -7.27049 31988 ft 412 kts 334°
2026-05-05 18:04 38.19708 -7.29314 31986 ft 413 kts 334°
2026-05-05 18:04 38.25160 -7.31608 31987 ft 412 kts 334°
2026-05-05 18:05 38.30596 -7.33947 31989 ft 412 kts 333°
2026-05-05 18:05 38.36023 -7.36307 31991 ft 412 kts 333°
2026-05-05 18:06 38.41402 -7.38656 31991 ft 411 kts 333°
2026-05-05 18:06 38.46821 -7.41026 32002 ft 411 kts 333°
2026-05-05 18:07 38.52229 -7.43394 31986 ft 410 kts 333°
2026-05-05 18:07 38.57621 -7.45758 31997 ft 409 kts 333°
2026-05-05 18:08 38.62991 -7.48116 31998 ft 408 kts 333°
2026-05-05 18:08 38.68358 -7.50478 32005 ft 408 kts 333°
2026-05-05 18:09 38.73720 -7.52841 31996 ft 407 kts 333°
2026-05-05 18:09 38.79059 -7.55196 32012 ft 405 kts 333°
2026-05-05 18:10 38.84394 -7.57556 31999 ft 406 kts 333°
2026-05-05 18:10 38.89734 -7.59921 32025 ft 406 kts 333°
2026-05-05 18:11 38.95056 -7.62282 32016 ft 407 kts 333°
2026-05-05 18:11 39.00408 -7.64660 31999 ft 407 kts 333°
2026-05-05 18:12 39.05763 -7.67042 32012 ft 408 kts 333°
2026-05-05 18:12 39.11129 -7.69433 32034 ft 408 kts 334°
2026-05-05 18:13 39.16500 -7.71830 32016 ft 409 kts 334°
2026-05-05 18:13 39.21305 -7.73978 32009 ft 409 kts 334°
2026-05-05 18:14 39.26686 -7.76386 32017 ft 409 kts 334°
2026-05-05 18:14 39.32068 -7.78800 32032 ft 409 kts 334°
2026-05-05 18:15 39.37310 -7.81142 31996 ft 387 kts 334°
2026-05-05 18:15 39.42294 -7.83376 31992 ft 367 kts 334°
2026-05-05 18:15 39.44667 -7.84440 31991 ft 355 kts 333°
2026-05-05 18:16 39.46960 -7.85469 31995 ft 342 kts 333°
2026-05-05 18:16 39.51410 -7.87484 32022 ft 343 kts 333°
2026-05-05 18:17 39.55989 -7.89577 32048 ft 359 kts 334°
2026-05-05 18:17 39.60719 -7.91719 32014 ft 356 kts 334°
2026-05-05 18:18 39.65342 -7.93807 32008 ft 351 kts 334°
2026-05-05 18:18 39.67631 -7.94842 31826 ft 345 kts 333°
2026-05-05 18:18 39.69888 -7.95863 31330 ft 344 kts 333°
2026-05-05 18:18 39.72203 -7.96923 30292 ft 362 kts 334°
2026-05-05 18:19 39.74616 -7.98030 29507 ft 371 kts 334°
2026-05-05 18:19 39.77045 -7.99134 29148 ft 367 kts 334°
2026-05-05 18:19 39.79433 -8.00214 28867 ft 359 kts 334°
2026-05-05 18:19 39.81775 -8.01274 28379 ft 354 kts 334°
2026-05-05 18:20 39.84096 -8.02330 27778 ft 353 kts 334°
2026-05-05 18:20 39.85629 -8.03025 27398 ft 352 kts 335°
2026-05-05 18:20 39.88704 -8.04427 26739 ft 347 kts 335°
2026-05-05 18:20 39.90939 -8.05447 26277 ft 343 kts 335°
2026-05-05 18:21 39.93183 -8.06473 25791 ft 341 kts 335°
2026-05-05 18:21 39.95414 -8.07494 25308 ft 338 kts 335°
2026-05-05 18:21 39.97607 -8.08498 25123 ft 329 kts 335°
2026-05-05 18:21 39.99732 -8.09469 25056 ft 318 kts 335°
2026-05-05 18:22 40.01785 -8.10407 25035 ft 306 kts 334°
2026-05-05 18:22 40.03760 -8.11310 24922 ft 296 kts 334°
2026-05-05 18:22 40.05679 -8.12190 24627 ft 290 kts 334°
2026-05-05 18:22 40.07582 -8.13067 24066 ft 292 kts 334°
2026-05-05 18:23 40.08879 -8.13672 23309 ft 306 kts 335°
2026-05-05 18:23 40.10948 -8.14636 22339 ft 321 kts 335°
2026-05-05 18:23 40.13053 -8.15605 21816 ft 320 kts 335°
2026-05-05 18:23 40.15138 -8.16560 21379 ft 315 kts 336°
2026-05-05 18:24 40.17222 -8.17517 20963 ft 311 kts 336°
2026-05-05 18:24 40.19230 -8.18440 20525 ft 309 kts 336°
2026-05-05 18:24 40.21244 -8.19366 20158 ft 304 kts 336°
2026-05-05 18:24 40.23229 -8.20281 19713 ft 302 kts 336°
2026-05-05 18:25 40.25205 -8.21194 19260 ft 300 kts 336°
2026-05-05 18:25 40.26528 -8.21805 18974 ft 298 kts 336°
2026-05-05 18:25 40.29107 -8.22997 18416 ft 295 kts 336°
2026-05-05 18:25 40.31038 -8.23891 17943 ft 293 kts 336°
2026-05-05 18:26 40.32960 -8.24782 17483 ft 294 kts 336°
2026-05-05 18:26 40.34890 -8.25678 17116 ft 293 kts 336°
2026-05-05 18:26 40.36802 -8.26563 16783 ft 290 kts 336°
2026-05-05 18:26 40.38699 -8.27441 16489 ft 287 kts 336°
2026-05-05 18:27 40.40578 -8.28313 16186 ft 285 kts 337°
2026-05-05 18:27 40.42437 -8.29175 15887 ft 282 kts 337°
2026-05-05 18:27 40.44280 -8.30032 15589 ft 279 kts 337°
2026-05-05 18:27 40.46099 -8.30878 15317 ft 276 kts 337°
2026-05-05 18:28 40.49690 -8.32548 14750 ft 272 kts 337°
2026-05-05 18:28 40.51468 -8.33375 14474 ft 270 kts 338°
2026-05-05 18:28 40.53240 -8.34199 14192 ft 269 kts 338°
2026-05-05 18:29 40.55000 -8.35020 13914 ft 268 kts 338°
2026-05-05 18:29 40.56756 -8.35839 13608 ft 267 kts 338°
2026-05-05 18:29 40.58500 -8.36652 13329 ft 264 kts 338°
2026-05-05 18:29 40.60227 -8.37458 13039 ft 263 kts 338°
2026-05-05 18:30 40.61942 -8.38261 12756 ft 261 kts 338°
2026-05-05 18:30 40.63619 -8.39043 12482 ft 258 kts 338°
2026-05-05 18:30 40.65314 -8.39834 12206 ft 259 kts 338°
2026-05-05 18:30 40.67027 -8.40635 11932 ft 263 kts 339°
2026-05-05 18:31 40.68776 -8.41454 11647 ft 270 kts 339°
2026-05-05 18:31 40.70560 -8.42291 11336 ft 275 kts 339°
2026-05-05 18:31 40.72359 -8.43141 11014 ft 274 kts 338°
2026-05-05 18:31 40.74097 -8.44203 10606 ft 276 kts 332°
2026-05-05 18:32 40.75795 -8.45400 10183 ft 278 kts 331°
2026-05-05 18:32 40.77488 -8.46611 9984 ft 271 kts 331°
2026-05-05 18:32 40.79111 -8.47764 9805 ft 262 kts 331°
2026-05-05 18:32 40.80722 -8.48899 9484 ft 259 kts 331°
2026-05-05 18:33 40.82292 -8.49999 9178 ft 254 kts 332°
2026-05-05 18:33 40.83833 -8.51072 8788 ft 249 kts 332°
2026-05-05 18:33 40.85351 -8.52128 8370 ft 246 kts 332°
2026-05-05 18:33 40.86871 -8.53183 7832 ft 248 kts 332°
2026-05-05 18:34 40.88389 -8.54236 7428 ft 245 kts 332°
2026-05-05 18:34 40.89897 -8.55284 6916 ft 246 kts 332°
2026-05-05 18:34 40.91378 -8.56313 6559 ft 241 kts 332°
2026-05-05 18:34 40.92885 -8.57359 6066 ft 242 kts 332°
2026-05-05 18:35 40.94377 -8.58393 5674 ft 242 kts 332°
2026-05-05 18:35 40.95851 -8.59416 5369 ft 237 kts 333°
2026-05-05 18:35 40.97289 -8.60414 5075 ft 230 kts 332°
2026-05-05 18:35 40.98714 -8.61315 4776 ft 224 kts 342°
2026-05-05 18:36 41.00213 -8.61716 4540 ft 218 kts 349°
2026-05-05 18:36 41.01660 -8.62077 4306 ft 211 kts 348°
2026-05-05 18:36 41.03076 -8.62445 4069 ft 206 kts 347°
2026-05-05 18:36 41.04488 -8.62818 3819 ft 208 kts 347°
2026-05-05 18:37 41.05887 -8.63190 3576 ft 202 kts 347°
2026-05-05 18:37 41.07238 -8.63542 3325 ft 194 kts 347°
2026-05-05 18:37 41.08538 -8.63881 3101 ft 186 kts 347°
2026-05-05 18:37 41.09793 -8.64207 2867 ft 182 kts 347°
2026-05-05 18:38 41.11022 -8.64527 2634 ft 179 kts 346°
2026-05-05 18:38 41.12217 -8.64838 2400 ft 169 kts 346°
2026-05-05 18:38 41.13326 -8.65126 2204 ft 156 kts 346°
2026-05-05 18:38 41.14353 -8.65395 2054 ft 150 kts 346°
2026-05-05 18:39 41.15376 -8.65662 1820 ft 148 kts 346°
2026-05-05 18:39 41.16367 -8.65921 1630 ft 143 kts 346°
2026-05-05 18:39 41.17347 -8.66177 1448 ft 145 kts 346°
2026-05-05 18:39 41.18334 -8.66435 1267 ft 144 kts 346°
2026-05-05 18:40 41.19326 -8.66697 1086 ft 147 kts 346°
2026-05-05 18:40 41.20315 -8.66955 868 ft 143 kts 344°
2026-05-05 18:40 41.21290 -8.67214 651 ft 141 kts 345°
2026-05-05 18:40 41.22265 -8.67473 510 ft 142 kts 347°
2026-05-05 18:41 41.23220 -8.67715 313 ft 140 kts 347°
2026-05-05 18:41 41.24155 -8.67963 213 ft 130 kts 348°
2026-05-05 18:41 41.24888 -8.68149 200 ft 87 kts 349°
2026-05-05 18:41 41.25329 -8.68264 178 ft 42 kts 349°
2026-05-05 18:42 41.25499 -8.68307 174 ft 16 kts 348°
2026-05-05 18:42 41.25591 -8.68287 172 ft 12 kts 56°
2026-05-05 18:42 41.25611 -8.68172 169 ft 13 kts 79°
2026-05-05 18:42 41.25560 -8.68091 171 ft 13 kts 168°
2026-05-05 18:43 41.25473 -8.68069 174 ft 13 kts 169°
2026-05-05 18:43 41.25389 -8.68047 177 ft 12 kts 168°
2026-05-05 18:43 41.25306 -8.68025 180 ft 12 kts 169°
2026-05-05 18:43 41.25226 -8.68004 183 ft 12 kts 168°
2026-05-05 18:44 41.25148 -8.67984 191 ft 11 kts 168°
2026-05-05 18:44 41.25071 -8.67963 190 ft 12 kts 169°
2026-05-05 18:44 41.24971 -8.67937 193 ft 18 kts 169°
2026-05-05 18:44 41.24842 -8.67884 211 ft 20 kts 150°
2026-05-05 18:45 41.24713 -8.67814 216 ft 20 kts 169°
2026-05-05 18:45 41.24581 -8.67780 217 ft 19 kts 168°
2026-05-05 18:45 41.24453 -8.67747 221 ft 18 kts 169°
2026-05-05 18:45 41.24329 -8.67714 228 ft 18 kts 164°
2026-05-05 18:46 41.24243 -8.67604 235 ft 17 kts 136°
2026-05-05 18:46 41.24133 -8.67557 237 ft 17 kts 169°
2026-05-05 18:46 41.24022 -8.67528 237 ft 16 kts 169°
2026-05-05 18:46 41.23916 -8.67500 237 ft 15 kts 169°
2026-05-05 18:47 41.23820 -8.67475 238 ft 13 kts 169°
2026-05-05 18:47 41.23742 -8.67433 238 ft 12 kts 129°
2026-05-05 18:47 41.23688 -8.67350 241 ft 12 kts 150°
2026-05-05 18:47 41.23622 -8.67329 241 ft 6 kts 173°
2026-05-05 18:48 41.23578 -8.67327 241 ft 7 kts 146°
2026-05-05 18:48 41.23560 -8.67273 244 ft 6 kts 109°
2026-05-05 18:48 41.23552 -8.67241 244 ft 1 kts 109°
2026-05-05 18:48 41.23552 -8.67239 244 ft 0 kts 109°